Location: Archemont
(49.1579°N, 1.7598°E)
Time: 20:00:56
(UTC+00:00)

Cosmos 1140 Rocket - Pass Details

Date: 03 February 2023
Orbit: 744 x 766 km, 74.1° (Epoch: 21 March)

Event Time Altitude Azimuth Distance (km) Brightness Sun altitude
Rises 17:22:15 0° 198° (SSW) 3,198 7.3 -5.3°
Reaches altitude 10° 17:24:36 10° 197° (SSW) 2,274 6.5 -5.7°
Maximum altitude 17:29:45 80° 112° (ESE) 768 3.5 -6.5°
Drops below altitude 10° 17:34:55 10° 25° (NNE) 2,277 5.6 -7.3°
Sets 17:37:17 0° 25° (NNE) 3,202 6.3 -7.7°
